Página principal
METAR-TAF:

METAR-TAF

Aeroportos :

Flores, Açores, Portugal

Aeroporto das Flores

latitude: 39-27N, longitude: 031-08W, altura: 28 m

Observação actual do tempo

O boletim foi feito há 5 horas e 12 minutos, às 18:00 UTC
Vento 6 kt de sul
Temperatura 18°C
Humidade 68%
Pressão 1031 hPa
Visibilidade 10 km ou mais
Poucas nuvensa uma altura de 2000 ft
Nuvens fragmentadasa uma altura de 3700 ft

METAR: LPFL 151800Z 18006KT 9999 FEW020 BKN037 18/12 Q1031

Hora: 22:12 (23:12 UTC)


TAF: em falta

Observações e previsões do tempo de mais de 4000 aeroportos (mensagens METAR e TAF).

As estações disponíveis são os pontos amarelos e vermelhos sobre o mapa.

Mova o rato sobre o mapa para ver o nome da estação.

Depois clique no ponto para visualizar as observações e previsões meteorológicas.

Para alterar o mapa : clique nos botões verdes com uma cruz preta para aumentar o zoom; no botão verde com uma pitada de zoom; ou nas setas verdes para mapas adjacentes.


METAR-TAF: